Regional Weather Roundup
Issued by NWS New Orleans/Baton Rouge, LA

Home | Current Version | Previous Version | Text Only | Print | Product List | Glossary Off
Versions: 1 2 3 4 5 6 7 8 9 10 11 12 13 14 15 16 17 18 19 20 21 22 23 24 25 26 27 28 29 30 31 32 33 34 35 36 37 38 39 40 41 42 43 44 45 46 47 48 49 50

068
ASUS44 KLIX 142101
RWRLIX
NEW ORLEANS REGIONAL WEATHER ROUNDUP
NATIONAL WEATHER SERVICE NEW ORLEANS LA
400 PM CDT SUN SEP 14 2014

NOTE: "FAIR" INDICATES FEW OR NO CLOUDS BELOW 12,000 FEET WITH NO
      SIGNIFICANT WEATHER AND/OR OBSTRUCTIONS TO VISIBILITY.
      SKY/WX - SKY CONDITION AND SIGNIFICANT WEATHER.
      TMP - AIR TEMPERATURE.     DP    - DEWPOINT TEMPERATURE.
      RH  - RELATIVE HUMIDITY.   PRES  - PRESSURE.
      HI  - HEAT INDEX.          WCI   - WIND CHILL INDEX.

*  THESE STATIONS ARE NOT NWS OR FAA STATIONS AND ARE NOT UNDER
   NWS QUALITY CONTROL.

LAZ038-040-048-061>063-065>067-069-142200-
SOUTHEAST LOUISIANA

CITY           SKY/WX    TMP DP  RH WIND       PRES   REMARKS
N.O. AUDUBON     N/A     90  73  57 MISG        N/A  HX  98
N.O. INTL ARPT MOSUNNY   89  72  56 NE12      30.05F HX  96
N.O. LAKEFRONT SUNNY     88  74  63 N5        30.06F HX  96
N.O. DOWNTOWN*   N/A     88  72  58 E5        30.06S
SLIDELL        MOSUNNY   90  71  53 CALM      30.04F HX  96
BATON ROUGE    PTSUNNY   87  72  60 MISG      30.07F
BOOTHVILLE     MOSUNNY   83  75  77 NE5       30.04F
BELLE CHASSE   MOSUNNY   89  72  56 E9        30.04F HX  96
BOGALUSA*        N/A     90  71  53 NE6       30.07F HX  95
GALLIANO*      NOT AVBL
NEW ROADS*     MOCLDY    82  72  70 N7        30.08F
GONZALES*        N/A     88  76  67 N5        30.05F HX  98
HAMMOND*       NOT AVBL
HOUMA*         MOSUNNY   90  72  55 NE8       30.05F HX  96
PORT FOURCHON* CLEAR     86  75  70 NE13G23   30.07S HX  95

$$

MSZ070-080>082-142200-
SOUTHERN MISSISSIPPI

CITY           SKY/WX    TMP DP  RH WIND       PRES   REMARKS
MCCOMB         SUNNY     86  69  56 VRB3      30.08F
GULFPORT       SUNNY     90  74  59 S8        30.04S HX  99
BILOXI         SUNNY     90  74  59 S8        30.05F HX  99
PASCAGOULA     LGT RAIN  88  74  63 S6        30.03F HX  96
STENNIS ARPT*  MOSUNNY   90  70  51 SE7       30.05F HX  95

$$

COASTAL OBSERVATIONS
LAKE AND NEARSHORE STATIONS

STATION/POSITION TIME  TEMP    WIND        PRES    WAVE
                       AIR SEA DIR/SP/G            HT/PER
                 (UTC) (F)     (DEG/KT/KT) (MB)    (FT/S)
PASCAGOULA       2000   88     140/  8/ 13 1016.9
WAVELAND YACHT   2000   84     160/  9/ 10 1017.0
GRAND ISLE       2000   83 85   60/  8/ 12 1018.0
SOUTHWEST PASS   2000   89 91   80/ 13/ 15 1017.2
NEW CANAL        2000   83 83  360/  5/  6 1018.2
SHELL BEACH      2000   83 80   70/  8/ 10 1017.6

OFFSHORE STATIONS

STATION/POSITION TIME  TEMP    WIND        PRES    WAVE
                       AIR SEA DIR/SP/G            HT/PER
                 (UTC) (F)     (DEG/KT/KT) (MB)    (FT/S)
64 S DAUPHIN ISL 2035   83 87   50/ 12/ 14 1017.6    4/ 7

$$




USA.gov is the U.S. government's official web portal to all federal, state and local government web resources and services.